Flag for Belgium Weather past 2 weeks in Leuven, Belgium

Now
45 °F

Passing clouds.


Feels Like: 38 °F
Forecast: 42 / 47 °F
Wind: 14 mph from West

Location: Brussels National Airport

Current Time: Dec 20, 2014 at 6:36:54 PM

Latest Report: Dec 20, 2014 at 5:50 PM


Visibility: N/A

Pressure: 30.27 "Hg

Humidity: 76%

Dew point: 37 °F

Location of LeuvenLocation

Historic Weather in Leuven — Graph

°F

Leuven temperature yesterday

Maximum temperature yesterday: 52 °F (at 12:20 AM)
Minimum temperature yesterday: 41 °F (at 10:50 PM)
Average temperature yesterday: 48 °F

Past Weeks' High & Low Weather Summary

 TemperatureHumidityPressure
High54 °F (Dec 18, 10:20 AM)100% (Dec 6, 5:50 AM)30.36 "Hg (Dec 6, 5:50 AM)
Low32 °F (Dec 6, 11:20 PM)61% (Dec 10, 4:20 PM)29.42 "Hg (Dec 12, 11:50 AM)
Average42 °F85%29.97 "Hg
* Reported Dec 5 5:20 PM — Dec 20 5:20 PM, Leuven, Weather by CustomWeather, © 2014

Note: Actual official high and low records may vary slightly from our data, if they occured in-between our weather recording intervals... More about our weather records

Advertising

Leuven weather history for previous 24 hours

 ConditionsComfort  
Time TempWeatherWind HumidityBarometerVisibility
5:20 PM
Dec 20
45 °FPassing clouds.14 mph71%30.24 "HgN/A
4:50 PM45 °FPassing clouds.18 mph71%30.24 "HgN/A
4:20 PM46 °FPartly sunny.18 mph71%30.21 "HgN/A
3:50 PM46 °FPartly sunny.18 mph71%30.21 "HgN/A
3:20 PM46 °FScattered clouds.17 mph71%30.21 "HgN/A
2:50 PM46 °FPartly sunny.18 mph71%30.21 "HgN/A
2:20 PM46 °FPartly sunny.18 mph71%30.21 "HgN/A
1:50 PM46 °FScattered clouds.18 mph71%30.18 "HgN/A
1:20 PM46 °FScattered clouds.18 mph71%30.18 "HgN/A
12:50 PM46 °FScattered clouds.20 mph71%30.18 "HgN/A
12:20 PM46 °FScattered clouds.17 mph66%30.18 "HgN/A
11:50 AM46 °FPassing clouds.21 mph66%30.21 "HgN/A
11:20 AM45 °FPartly sunny.18 mph71%30.21 "HgN/A
10:50 AM45 °FPartly sunny.21 mph71%30.21 "HgN/A
10:20 AM43 °FPartly sunny.15 mph76%30.21 "HgN/A
9:50 AM43 °FBroken clouds.16 mph76%30.21 "HgN/A
9:20 AM43 °FBroken clouds.14 mph81%30.21 "HgN/A
8:50 AM41 °FPassing clouds.13 mph81%30.18 "HgN/A
8:20 AM43 °FPassing clouds.16 mph76%30.21 "HgN/A
7:50 AM43 °FClear.17 mph76%30.21 "Hg10 mi
7:20 AM41 °FClear.13 mph81%30.21 "Hg10 mi
6:50 AM41 °FClear.13 mph87%30.21 "Hg10 mi
6:20 AM41 °FClear.14 mph81%30.21 "Hg10 mi
5:50 AM41 °FClear.13 mph81%30.21 "Hg10 mi
5:20 AM41 °FClear.16 mph81%30.21 "Hg10 mi
4:50 AM41 °FClear.15 mph81%30.18 "Hg10 mi
4:20 AM41 °FClear.14 mph81%30.21 "Hg10 mi
3:50 AM41 °FClear.15 mph81%30.21 "Hg10 mi
3:20 AM41 °FClear.15 mph81%30.21 "Hg10 mi
2:50 AM41 °FClear.14 mph81%30.21 "Hg10 mi
2:20 AM41 °FClear.15 mph81%30.21 "Hg10 mi
1:50 AM41 °FClear.14 mph81%30.18 "Hg10 mi
1:20 AM41 °FClear.16 mph76%30.18 "Hg10 mi
12:50 AM41 °FClear.15 mph76%30.18 "Hg10 mi
12:20 AM41 °FClear.15 mph81%30.18 "Hg10 mi
11:50 PM
Dec 19
41 °FClear.15 mph81%30.18 "Hg10 mi
11:20 PM41 °FClear.16 mph81%30.15 "Hg10 mi
10:50 PM41 °FClear.12 mph81%30.15 "Hg10 mi
10:20 PM43 °FClear.13 mph76%30.15 "Hg10 mi
9:50 PM43 °FPassing clouds.15 mph76%30.15 "HgN/A
9:20 PM43 °FPassing clouds.13 mph76%30.15 "HgN/A
8:50 PM43 °FPassing clouds.14 mph76%30.12 "HgN/A
8:20 PM43 °FPassing clouds.14 mph81%30.12 "HgN/A
7:50 PM43 °FClear.13 mph76%30.09 "Hg10 mi
7:20 PM43 °FClear.13 mph76%30.09 "Hg10 mi
6:50 PM43 °FClear.12 mph76%30.07 "Hg10 mi
6:20 PM45 °FClear.12 mph76%30.07 "Hg10 mi
Weather by CustomWeather, © 2014

See weather overviewHow to use our weather pages